Snowfall_Accumulation
0.0 0.0 0.0 0.0 0.0 0.0 0.0 0.0 0.0 0.0 0.0 0.0 0.0 0.0 0.0 0.0 0.0 0.0 0.0 0.0 0.0 0.0 0.0 0.0 0.0 0.0 0.0
0.0 0.3 0.4 0.1 0.2 0.0 0.0 0.0 0.0 0.0 0.0 0.0 0.0 0.0 0.0 0.0 0.0 0.0 0.0 0.0 0.0 0.0 0.0 0.0 0.0 0.0 0.0
0.3 0.8 1.3 0.9 2.0 1.6 1.1 0.0 0.0 0.0 0.0 0.0 0.0 0.0 0.0 0.0 0.0 0.0 0.0 0.0 0.0 0.0 0.0 0.0 0.0 0.0 0.0
0.3 1.0 0.8 0.5 0.3 0.4 0.4 0.2 0.0 0.0 0.0 0.0 0.0 0.0 0.0 0.0 0.0 0.0 0.0 0.0 0.0 0.0 0.0 0.0 0.0 0.0 0.0
0.9 0.3 0.3 0.3 0.3 0.2 0.1 0.0 0.0 0.0 0.0 0.0 0.0 0.0 0.0 0.0 0.0 0.0 0.0 0.0 0.0 0.0 0.0 0.0 0.0 0.0 0.0
0.4 0.1 0.1 0.1 0.0 0.0 0.2 0.9 3.0 0.2 0.3 0.5 0.0 0.1 0.0 0.0 0.0 0.0 0.0 0.0 0.0 0.0 0.0 0.0 0.0 0.0 0.0
0.1 0.0 0.0 0.0 0.4 0.5 1.3 2.1 2.0 3.1 1.8 10.1 1.1 1.4 0.0 0.0 0.0 0.0 0.0 0.0 0.0 0.0 0.0 0.0 0.0 0.0 0.0
0.0 0.0 0.1 0.1 0.3 0.5 1.1 3.4 3.6 2.8 0.8 9.1 6.4 3.9 0.5 0.2 0.0 0.0 0.0 0.0 0.0 0.0 0.0 0.0 0.0 0.0 0.0
0.0 0.0 0.0 0.0 0.0 0.4 2.4 5.4 7.4 5.1 3.7 4.5 5.8 7.2 6.8 2.0 0.0 0.0 0.0 0.0 0.0 0.0 0.0 0.0 0.0 0.0 0.0
0.9 0.2 0.1 0.0 0.0 0.1 0.9 8.4 8.2 7.9 2.3 8.2 5.2 6.0 12.0 6.2 3.8 0.4 0.2 0.0 0.0 0.0 0.0 0.0 0.0 0.0 0.1
2.8 2.7 2.5 2.3 0.4 0.6 1.0 4.6 13.2 10.4 1.5 10.5 12.7 5.2 10.2 5.9 3.9 3.7 2.1 0.2 0.0 0.0 0.0 0.0 0.1 0.1 0.8
1.4 1.6 2.3 2.6 2.4 3.1 3.3 3.6 3.7 5.1 2.8 3.8 20.8 9.2 15.0 13.0 4.6 4.4 4.4 2.6 1.2 1.2 0.8 0.1 0.0 0.0 0.1
1.8 1.9 1.9 1.7 2.2 2.1 2.6 3.5 3.4 3.2 3.8 3.8 6.9 8.8 14.3 16.7 9.6 5.0 5.4 4.5 2.4 1.4 1.3 1.6 1.5 0.4 0.9
2.4 1.7 1.5 2.0 3.4 3.5 4.6 4.4 6.6 5.8 5.6 6.0 5.8 7.9 15.9 8.1 9.1 8.5 3.7 5.4 3.2 2.1 2.2 1.5 1.2 1.4 2.0
3.4 4.0 2.9 3.1 3.3 3.5 4.3 7.0 11.4 8.5 9.8 8.8 8.4 8.0 6.9 7.8 13.2 4.5 3.8 3.5 2.6 3.2 2.9 2.4 1.0 1.9 2.5
5.8 5.5 7.1 7.3 7.1 9.0 9.1 10.3 11.5 7.6 9.8 10.9 12.1 14.5 12.0 10.0 3.2 7.9 6.7 4.2 4.3 2.7 2.4 6.0 3.0 0.8 0.5
9.4 9.9 12.1 11.7 12.6 11.9 8.3 8.9 9.8 7.1 8.8 10.4 14.2 20.0 25.9 12.1 5.7 3.5 9.1 8.3 5.5 5.6 3.8 3.8 4.6 1.9 1.0